TimeEDT,TemperatureF,Dew PointF,Humidity,Sea Level PressureIn,VisibilityMPH,Wind Direction,Wind SpeedMPH,Gust SpeedMPH,PrecipitationIn,Events,Conditions,WindDirDegrees,DateUTC
12:15 AM,70.9,48.4,45,29.75,10.0,South,4.6,-,N/A,,Clear,190,2013-05-15 04:15:00
12:34 AM,71.2,49.3,46,29.75,10.0,SSW,3.5,-,N/A,,Clear,210,2013-05-15 04:34:00
12:54 AM,72.1,52.3,50,29.74,10.0,SSW,6.9,-,N/A,,Clear,210,2013-05-15 04:54:00
1:15 AM,72.0,54.7,54,29.73,10.0,SSW,6.9,-,N/A,,Clear,210,2013-05-15 05:15:00
1:34 AM,71.8,55.8,57,29.71,10.0,SSW,8.1,-,N/A,,Clear,200,2013-05-15 05:34:00
1:55 AM,71.6,56.8,60,29.71,10.0,SSW,3.5,-,N/A,,Clear,200,2013-05-15 05:55:00
2:15 AM,70.9,57.6,63,29.70,10.0,SSW,5.8,-,N/A,,Clear,200,2013-05-15 06:15:00
2:34 AM,71.1,58.1,63,29.69,10.0,South,5.8,-,N/A,,Clear,180,2013-05-15 06:34:00
2:55 AM,71.2,58.3,64,29.68,10.0,SSW,8.1,-,N/A,,Clear,210,2013-05-15 06:55:00
3:15 AM,71.4,58.3,63,29.68,10.0,SSW,9.2,-,N/A,,Clear,210,2013-05-15 07:15:00
3:34 AM,71.1,58.3,64,29.67,10.0,SSW,6.9,-,N/A,,Clear,210,2013-05-15 07:34:00
3:55 AM,70.2,58.1,65,29.66,10.0,SSW,5.8,-,N/A,,Clear,200,2013-05-15 07:55:00
4:14 AM,70.0,57.9,65,29.65,10.0,SSW,8.1,-,N/A,,Clear,200,2013-05-15 08:14:00
4:35 AM,70.2,57.6,64,29.65,10.0,SSW,6.9,-,N/A,,Clear,210,2013-05-15 08:35:00
4:55 AM,70.5,56.7,61,29.65,10.0,SW,6.9,-,N/A,,Clear,230,2013-05-15 08:55:00
5:14 AM,73.0,54.7,52,29.65,10.0,WSW,13.8,20.7,N/A,,Clear,240,2013-05-15 09:14:00
5:35 AM,73.8,54.0,50,29.65,10.0,WSW,12.7,19.6,N/A,,Clear,250,2013-05-15 09:35:00
5:55 AM,73.8,53.6,49,29.66,10.0,WSW,11.5,18.4,N/A,,Clear,250,2013-05-15 09:55:00
6:14 AM,73.8,53.2,49,29.66,10.0,West,12.7,23.0,N/A,,Clear,260,2013-05-15 10:14:00
6:35 AM,73.6,52.9,48,29.66,10.0,West,11.5,18.4,N/A,,Clear,260,2013-05-15 10:35:00
6:54 AM,73.0,52.5,48,29.67,10.0,WSW,13.8,20.7,N/A,,Clear,250,2013-05-15 10:54:00
7:14 AM,73.6,52.7,48,29.69,10.0,West,13.8,21.9,N/A,,Clear,260,2013-05-15 11:14:00
7:35 AM,73.6,52.5,48,29.69,10.0,West,12.7,-,N/A,,Clear,270,2013-05-15 11:35:00
7:54 AM,73.9,52.7,47,29.70,10.0,West,16.1,23.0,N/A,,Clear,260,2013-05-15 11:54:00
8:15 AM,74.8,53.1,47,29.70,10.0,West,16.1,24.2,N/A,,Clear,270,2013-05-15 12:15:00
8:34 AM,75.6,53.2,46,29.71,10.0,West,16.1,25.3,N/A,,Clear,270,2013-05-15 12:34:00
9:15 AM,76.8,52.7,43,29.71,10.0,WNW,18.4,24.2,N/A,,Clear,290,2013-05-15 13:15:00
9:34 AM,77.7,50.5,38,29.72,10.0,WNW,21.9,25.3,N/A,,Clear,300,2013-05-15 13:34:00
9:55 AM,78.4,50.0,37,29.72,10.0,West,16.1,25.3,N/A,,Clear,280,2013-05-15 13:55:00
10:14 AM,77.4,47.8,35,29.73,10.0,WNW,19.6,24.2,N/A,,Clear,300,2013-05-15 14:14:00
10:34 AM,78.1,47.5,34,29.74,10.0,WNW,19.6,25.3,N/A,,Clear,300,2013-05-15 14:34:00
10:55 AM,78.4,48.6,35,29.74,10.0,WNW,12.7,23.0,N/A,,Clear,290,2013-05-15 14:55:00
11:14 AM,77.4,46.0,33,29.75,10.0,WNW,15.0,21.9,N/A,,Clear,300,2013-05-15 15:14:00
11:34 AM,79.3,46.0,31,29.75,10.0,WNW,19.6,24.2,N/A,,Clear,290,2013-05-15 15:34:00
11:55 AM,79.5,46.2,31,29.76,10.0,WNW,16.1,-,N/A,,Clear,290,2013-05-15 15:55:00
12:14 PM,80.4,45.0,29,29.77,10.0,WNW,15.0,25.3,N/A,,Clear,290,2013-05-15 16:14:00
12:35 PM,80.2,45.0,29,29.78,10.0,NW,17.3,26.5,N/A,,Clear,310,2013-05-15 16:35:00
12:55 PM,81.7,44.1,26,29.78,10.0,WNW,23.0,29.9,N/A,,Clear,290,2013-05-15 16:55:00
1:14 PM,81.5,43.5,26,29.78,10.0,West,19.6,-,N/A,,Clear,270,2013-05-15 17:14:00
1:35 PM,82.0,43.3,25,29.79,10.0,WNW,20.7,25.3,N/A,,Clear,290,2013-05-15 17:35:00
1:55 PM,82.0,41.2,23,29.79,10.0,West,21.9,29.9,N/A,,Clear,280,2013-05-15 17:55:00
2:14 PM,82.4,41.0,23,29.78,10.0,WNW,19.6,26.5,N/A,,Clear,300,2013-05-15 18:14:00
2:35 PM,83.1,43.0,24,29.78,10.0,West,16.1,20.7,N/A,,Clear,280,2013-05-15 18:35:00
2:54 PM,82.6,43.3,25,29.78,10.0,WNW,16.1,20.7,N/A,,Clear,290,2013-05-15 18:54:00
3:14 PM,82.6,42.1,24,29.79,10.0,WNW,18.4,26.5,N/A,,Clear,290,2013-05-15 19:14:00
3:35 PM,82.8,41.9,24,29.79,10.0,WNW,19.6,26.5,N/A,,Clear,300,2013-05-15 19:35:00
3:54 PM,82.4,41.9,24,29.79,10.0,WNW,19.6,26.5,N/A,,Clear,300,2013-05-15 19:54:00
4:14 PM,82.0,42.3,24,29.80,10.0,WNW,17.3,27.6,N/A,,Clear,300,2013-05-15 20:14:00
4:35 PM,80.8,43.0,26,29.80,10.0,West,17.3,25.3,N/A,,Clear,280,2013-05-15 20:35:00
4:54 PM,81.3,43.0,26,29.80,10.0,West,17.3,26.5,N/A,,Clear,270,2013-05-15 20:54:00
5:14 PM,80.8,43.2,26,29.80,10.0,WNW,18.4,24.2,N/A,,Clear,290,2013-05-15 21:14:00
5:35 PM,80.2,41.7,25,29.80,10.0,West,17.3,20.7,N/A,,Clear,280,2013-05-15 21:35:00
5:54 PM,80.1,42.4,26,29.80,10.0,West,15.0,23.0,N/A,,Clear,280,2013-05-15 21:54:00
6:15 PM,79.2,42.3,27,29.80,10.0,West,16.1,23.0,N/A,,Clear,270,2013-05-15 22:15:00
6:35 PM,78.3,41.0,26,29.80,10.0,West,15.0,19.6,N/A,,Clear,270,2013-05-15 22:35:00
6:54 PM,78.3,40.6,26,29.80,10.0,WNW,15.0,20.7,N/A,,Clear,290,2013-05-15 22:54:00
7:15 PM,77.5,40.8,27,29.80,10.0,WNW,11.5,-,N/A,,Clear,290,2013-05-15 23:15:00
7:34 PM,76.6,42.8,30,29.80,10.0,WNW,9.2,-,N/A,,Clear,300,2013-05-15 23:34:00
7:54 PM,75.6,42.8,31,29.80,10.0,WNW,10.4,-,N/A,,Clear,290,2013-05-15 23:54:00
8:15 PM,73.6,42.6,33,29.80,10.0,West,10.4,-,N/A,,Clear,280,2013-05-16 00:15:00
8:34 PM,72.0,42.8,35,29.81,10.0,WNW,9.2,-,N/A,,Clear,290,2013-05-16 00:34:00
8:54 PM,70.9,43.9,38,29.81,10.0,West,4.6,-,N/A,,Clear,270,2013-05-16 00:54:00
9:15 PM,68.2,44.8,43,29.82,10.0,WNW,6.9,-,N/A,,Clear,300,2013-05-16 01:15:00
9:34 PM,67.6,45.3,45,29.81,10.0,Calm,Calm,-,N/A,,Clear,0,2013-05-16 01:34:00
9:54 PM,68.4,45.9,44,29.82,10.0,WNW,4.6,-,N/A,,Scattered Clouds,300,2013-05-16 01:54:00
10:15 PM,67.8,46.0,46,29.82,10.0,WNW,4.6,-,N/A,,Scattered Clouds,300,2013-05-16 02:15:00
10:34 PM,67.5,45.9,46,29.83,10.0,NW,5.8,-,N/A,,Scattered Clouds,310,2013-05-16 02:34:00
10:55 PM,66.9,44.8,45,29.83,10.0,NNW,8.1,-,N/A,,Clear,330,2013-05-16 02:55:00
11:14 PM,66.4,43.7,44,29.83,10.0,NNW,6.9,-,N/A,,Scattered Clouds,330,2013-05-16 03:14:00
11:35 PM,65.7,39.6,38,29.82,10.0,NNW,6.9,-,N/A,,Scattered Clouds,340,2013-05-16 03:35:00
11:55 PM,65.1,36.1,34,29.82,10.0,NNW,8.1,-,N/A,,Clear,340,2013-05-16 03:55:00